Disclaimer

Please do not use the information listed here in-flight or in-navigation, as they are not provided to us by the airports but are provided by volunteers, so they might be outdated.

Search


Regions


Airport information page

Radio informations:
CHELYABINSK METE - 128.3 MHz

Airport informations:
Latitude: 55° 18' 21.01" N
Longitude: 061° 30' 12.00" E
Elevation: 769 feet - 234 meters
Operating hours: 24 hour operations
Operating agency: Civil government, landing fees and diplomatic clearance may be required
Timezone: UTC+5(+6DT) - Last Sunday in March to last Sunday in October
Fuel: N/A

Runway information:
09/27 - 10499 x 197 feet< - >3200 x 60 meters

Recent METARs:
USCC 170900Z 15005MPS 9999 SCT020 M08/M10 Q1011 R09/000060 NOSIG RMK QFE738
USCC 170930Z 15005MPS 9999 SCT020 M08/M10 Q1010 R09/000060 NOSIG RMK QFE737
USCC 171000Z 16005MPS 9999 SCT020 M08/M10 Q1010 R09/000060 NOSIG RMK QFE737

Airport on the map: